View from above orbital plane
|
View from above satellite
|
Ground track
|
The orbit data is extracted from the following two-line orbital elements,
1 39134U 13015E 18113.88803808 .00001668 00000-0 88543-4 0 9990
2 39134 64.8652 302.5393 0018941 218.6465 141.3308 15.19026170276651
Epoch (UTC): | 23 April 2018 21:18:46 |
Eccentricity: | 0.0018941 |
inclination: | 64.8652° |
perigee height: | 496 km |
apogee height: | 522 km |
right ascension of ascending node: | 302.5393° |
argument of perigee: | 218.6465° |
revolutions per day: | 15.19026170 |
mean anomaly at epoch: | 141.3308° |
orbit number at epoch: | 27665 |
The dashed part of the orbit path shows where the satellite is in the earth's shadow,
|
|